Regional Weather Roundup
Issued by NWS

Home | Current Version | Previous Version | Text Only | Print | Product List | Glossary Off
Versions: 1 2 3 4 5 6 7 8 9 10 11 12 13 14 15 16 17 18 19 20 21 22 23 24 25 26 27 28 29 30 31 32 33 34 35 36 37 38 39 40 41 42 43 44 45 46 47 48 49 50

000
ASUS43 KLOT 181903
RWRIL

ILLINOIS REGIONAL WEATHER ROUNDUP
NATIONAL WEATHER SERVICE CHICAGO/ROMEOVILLE IL
200 PM CDT FRI AUG 18 2017

NOTE: "FAIR" INDICATES FEW OR NO CLOUDS BELOW 12,000 FEET WITH NO
SIGNIFICANT WEATHER AND/OR OBSTRUCTIONS TO VISIBILITY.

* THESE STATIONS ARE NOT UNDER NWS QUALITY CONTROL. THEY ALSO MAY NOT
  REPORT WEATHER SUCH AS PRECIPITATION OR FOG.

ILZ001-002-007-009-015-016-024-182000-
NORTHWEST ILLINOIS

CITY           SKY/WX    TMP DP  RH WIND       PRES   REMARKS
MOLINE         SUNNY     81  60  48 SW9       29.90F HX  82
STERLING*      SUNNY     79  62  56 W8G17     29.90S HX  80
SAVANNA*       SUNNY     80  58  48 SW6       29.89F HX  80
$$

ILZ003-004-008-010-011-017-018-182000-
NORTH CENTRAL ILLINOIS

CITY           SKY/WX    TMP DP  RH WIND       PRES   REMARKS
ROCKFORD       MOSUNNY   78  63  59 W7        29.89F HX  80
FREEPORT*      SUNNY     76  61  60 W10       29.91S
ROCHELLE*      SUNNY     77  62  58 W10       29.89S
$$

ILZ005-006-012>014-019>023-182000-
NORTHEAST ILLINOIS

CITY           SKY/WX    TMP DP  RH WIND       PRES   REMARKS
CHICAGO-OHARE  PTSUNNY   80  60  50 W10       29.86F HX  81
CHICAGO-MIDWAY PTSUNNY   80  60  50 W15G21    29.86F HX  81
AURORA         SUNNY     78  64  61 W10       29.88F HX  80
LANSING*       CLOUDY    80  58  48 W12G22    29.88S HX  80
JOLIET*        MOSUNNY   80  64  57 W10       29.89S HX  82
WAUKEGAN       MOSUNNY   76  62  62 W8        29.85S
DUPAGE AIRPORT SUNNY     78  64  61 W13       29.87F HX  80
KANKAKEE*      MOSUNNY   78  64  61 W12G21    29.91S HX  80
WHEELING       MOSUNNY   79  62  56 W13       29.87S HX  80
MORRIS*        MOSUNNY   78  64  61 W8        29.88F HX  80
NORTHERLY ISL    N/A     78  58  49 NW9         N/A
$$

LMZ740>746-182000-
SOUTHERN LAKE MICHIGAN

STATION/POSITION SKY/WX   TEMP    WIND        PRES    VSBY  WAVE
                          AIR SEA DIR/SP/G                  HT/PER
                          (F)     (DEG/KT/KT) (MB)    (MI)  (FT/S)
SOUTHERN BUOY              69 71  310/ 12/ 16 1010.7          3/ 5
WILMETTE HARBOR            74 72  270/ 12/ 16   N/A           2/ 4
HARRISON CRIB              76     250/  8/  9   N/A
CALUMET HARBOR             78     230/  7/ 12 1010.9S
BURNS HARBOR               71      20/  4/  5 1012.2S
MICHIGAN CITY              72     300/  6/  8   N/A
MICHIGAN CITY 6N           71 74  310/  6/  8   N/A           3/ 5
ST. JOSEPH                 70 73  300/ 10/ 14 1011.7R         4/ 5
$$

ILZ025>027-034>036-040-047-049-050-058-095>099-182000-
WEST-CENTRAL ILLINOIS

CITY           SKY/WX    TMP DP  RH WIND       PRES   REMARKS
QUINCY         CLOUDY    84  63  49 S9        29.92F HX  85
GALESBURG*     CLOUDY    80  65  61 SW7       29.93F HX  82
MACOMB*        MOSUNNY   80  66  62 W5        29.95S HX  82
$$

ILZ028>032-037-038-041>044-048-051>054-059>061-182000-
CENTRAL ILLINOIS

CITY           SKY/WX    TMP DP  RH WIND       PRES   REMARKS
BLOOMINGTON    SUNNY     81  65  58 SW12      29.93F HX  83
DECATUR        SUNNY     83  60  45 SW9       29.94F HX  83
PEORIA         SUNNY     84  60  44 VRB6G17   29.91F HX  84
LACON*         MOSUNNY   79  62  55 W7        29.90S HX  80
LINCOLN*       SUNNY     83  65  54 W5        29.93F HX  84
SPRINGFIELD    SUNNY     85  68  56 SW9       29.94F HX  88
TAYLORVILLE    NOT AVBL
$$

ILZ033-039-045-046-055>057-062-063-182000-
EAST-CENTRAL ILLINOIS

CITY           SKY/WX    TMP DP  RH WIND       PRES   REMARKS
CHAMPAIGN      SUNNY     83  62  49 W10       29.94F HX  84
MATTOON        SUNNY     82  64  54 W9        29.94F HX  83
PARIS*         SUNNY     82  65  56 W14G22    29.94F HX  84
$$

ILZ079-100>102-182000-
SOUTHWEST ILLINOIS

CITY           SKY/WX    TMP DP  RH WIND       PRES   REMARKS
ALTON          MOSUNNY   84  66  54 W6        29.96F HX  86
BELLEVILLE     SUNNY     87  62  43 N3        29.97F HX  87
CAHOKIA*       SUNNY     88  59  37 W6        29.96F HX  87
SPARTA*        SUNNY     83  64  51 CALM      29.98F HX  84
$$

ILZ064>066-069>071-074>076-080>082-084>086-088>090-092>094-182000-
SOUTH-CENTRAL ILLINOIS

CITY           SKY/WX    TMP DP  RH WIND       PRES   REMARKS
CARBONDALE     SUNNY     84  67  56 W8        29.97F HX  86
CAIRO*         SUNNY     84  66  54 W8        29.98F HX  86
EFFINGHAM*     SUNNY     83  64  52 W7        29.96F HX  85
MARION         MOSUNNY   84  64  51 NW6       29.99S HX  86
MT. VERNON     SUNNY     85  64  49 VRB3      29.97S HX  86
CENTRALIA*     SUNNY     85  67  54 W8        29.96F HX  88
SALEM*         SUNNY     85  64  49 SW7       29.96F HX  86
METROPOLIS*    SUNNY     86  65  50 SW7       29.98F HX  88
$$

ILZ067-068-072-073-078-083-087-091-182000-
SOUTHEAST ILLINOIS

CITY           SKY/WX    TMP DP  RH WIND       PRES   REMARKS
LAWRENCEVILLE  MOSUNNY   87  65  47 W10       29.95F HX  89
FLORA*         SUNNY     84  65  52 W3        29.96S HX  86
FAIRFIELD*     SUNNY     86  61  43 W3        29.95S HX  86
HARRISBURG*    SUNNY     85  67  55 W7        29.97F HX  88
ROBINSON*      SUNNY     83  68  60 W9        29.95F HX  85
CARMI*         SUNNY     83  68  60 W7        29.96F HX  86
$$

ABBREVIATIONS USED IN REMARKS
   TC - TEMPERATURE IN CELSIUS
  WCI - WIND CHILL INDEX
   HX - HEAT INDEX
  VSB - VISIBILITY
$$





USA.gov is the U.S. government's official web portal to all federal, state and local government web resources and services.